Zurück zum Katalog

STARLINK-33612

AktivKommunikationVLEO
NORAD 63325·PAYLOAD·🇺🇸 United States

Gestartet Mar 18, 2025 von Cape Canaveral Space Force Station

Loading…

Nächste Überflüge (nächste 24 Stunden)

TLE

AktuellSource: CelesTrak SupGP

Epoche: Sep 15, 2026, 02:29 UTC

1 63325C 25057U   26258.10395833 -.00027123  00000+0 -98228-3 0  2589
2 63325  43.0041  41.4242 0001431 269.4229  51.1842 15.27595564    14

Verfolge STARLINK-33612 in Echtzeit mit AllMySat

Download on the App Store